This demonstration page uses our WeatherBlox Daily Observations layout. Learn more.

Hourly Observations for July 2, 2019

Temp ( °F °C ) Dew Point ( °F °C ) Humidity (%) Winds ( mph kmh ) Pressure ( in mb ) Visibility ( mi km ) Precip ( " mm )
12:15 am 00:15 Clear 70 21 63 17 78 78 Calm 29.97 1015 10 16.09344 0 0
12:35 am 00:35 Clear 70 21 63 17 78 78 Calm 29.97 1015 10 16.09344 0 0
12:55 am 00:55 Clear 70 21 63 17 78 78 SW 3 6 29.97 1015 10 16.09344 0 0
1:15 am 01:15 Clear 70 21 63 17 78 78 SW 3 6 29.97 1015 10 16.09344 0 0
1:35 am 01:35 Clear 68 20 63 17 83 83 Calm 29.97 1015 10 16.09344 0 0
1:55 am 01:55 Clear 68 20 64 18 88 88 Calm 29.97 1015 10 16.09344 0 0
2:15 am 02:15 Clear 68 20 63 17 83 83 Calm 29.97 1015 10 16.09344 0 0
2:35 am 02:35 Clear 68 20 63 17 83 83 Calm 29.97 1015 10 16.09344 0 0
2:55 am 02:55 Clear 66 19 63 17 88 88 W 3 6 29.97 1015 10 16.09344 0 0
3:15 am 03:15 Clear 66 19 63 17 88 88 W 6 9 29.97 1015 10 16.09344 0 0
3:35 am 03:35 Clear 64 18 63 17 94 94 W 6 9 29.97 1015 10 16.09344 0 0
3:55 am 03:55 Clear 68 20 63 17 83 83 WSW 5 7 29.97 1015 10 16.09344 0 0
4:15 am 04:15 Clear 66 19 63 17 88 88 W 6 9 29.97 1015 10 16.09344 0 0
4:35 am 04:35 Clear 66 19 63 17 88 88 Calm 29.97 1015 10 16.09344 0 0
4:55 am 04:55 Clear 66 19 63 17 88 88 W 6 9 29.94 1014 10 16.09344 0 0
5:15 am 05:15 Clear 64 18 63 17 94 94 WNW 3 6 29.94 1014 10 16.09344 0 0
5:35 am 05:35 Clear 64 18 63 17 94 94 Calm 29.94 1014 10 16.09344 0 0
5:55 am 05:55 Sunny 64 18 63 17 94 94 Calm 29.94 1014 10 16.09344 0 0
6:15 am 06:15 Sunny 66 19 63 17 88 88 Calm 29.94 1014 10 16.09344 0 0
6:35 am 06:35 Sunny 68 20 63 17 83 83 Calm 29.94 1014 10 16.09344 0 0
6:55 am 06:55 Sunny 70 21 64 18 83 83 Calm 29.94 1014 10 16.09344 0 0
7:15 am 07:15 Sunny 70 21 64 18 83 83 W 3 6 29.94 1014 10 16.09344 0 0
7:35 am 07:35 Sunny 72 22 66 19 83 83 Calm 29.94 1014 10 16.09344 0 0
7:55 am 07:55 Sunny 73 23 64 18 74 74 W 3 6 29.94 1014 10 16.09344 0 0
8:15 am 08:15 Sunny 77 25 64 18 65 65 W 3 6 29.94 1014 10 16.09344 0 0
8:35 am 08:35 Mostly Cloudy 77 25 64 18 65 65 WSW 5 7 29.94 1014 10 16.09344 0 0
8:55 am 08:55 Mostly Cloudy 79 26 64 18 61 61 WSW 5 7 29.94 1014 10 16.09344 0 0
9:15 am 09:15 Sunny 81 27 64 18 58 58 SSW 6 9 29.94 1014 10 16.09344 0 0
9:35 am 09:35 Partly Cloudy 82 28 68 20 62 62 SW 6 9 29.94 1014 10 16.09344 0 0
9:55 am 09:55 Cloudy 82 28 68 20 62 62 SSW 5 7 29.94 1014 10 16.09344 0 0
10:15 am 10:15 Cloudy 82 28 68 20 62 62 SSW 5 7 29.94 1014 10 16.09344 0 0
10:35 am 10:35 Partly Cloudy 86 30 68 20 55 55 SSW 5 7 29.91 1013 10 16.09344 0 0
10:55 am 10:55 Sunny 86 30 70 21 59 59 SSW 8 13 29.91 1013 10 16.09344 0 0
11:15 am 11:15 Sunny 88 31 68 20 52 52 WSW 7 11 29.91 1013 10 16.09344 0 0
11:35 am 11:35 Sunny 88 31 68 20 52 52 SSW 7 11 29.91 1013 10 16.09344 0 0
11:55 am 11:55 Sunny 90 32 70 21 52 52 SW 8 13 29.91 1013 10 16.09344 0 0
12:15 pm 12:15 Sunny 90 32 70 21 52 52 WSW 6 9 29.91 1013 10 16.09344 0 0
12:35 pm 12:35 Sunny 90 32 70 21 52 52 SW 3 6 29.88 1012 10 16.09344 0 0
12:55 pm 12:55 Sunny 91 33 70 21 49 49 W 3 6 29.88 1012 10 16.09344 0 0
1:15 pm 13:15 Partly Cloudy 91 33 72 22 52 52 WSW 6 9 29.88 1012 10 16.09344 0 0
1:35 pm 13:35 Partly Cloudy 91 33 72 22 52 52 WSW 6 9 29.88 1012 10 16.09344 0 0
1:55 pm 13:55 Sunny 91 33 72 22 52 52 SW 5 7 29.85 1011 10 16.09344 0 0
2:15 pm 14:15 Sunny 93 34 73 23 53 53 SSW 5 7 29.85 1011 10 16.09344 0 0
2:35 pm 14:35 Sunny 95 35 72 22 47 47 SSE 7 11 29.85 1011 10 16.09344 0 0
2:55 pm 14:55 Partly Cloudy 95 35 73 23 50 50 SSW 6 9 29.83 1010 10 16.09344 0 0
3:15 pm 15:15 Partly Cloudy 95 35 73 23 50 50 SW 8 13 29.83 1010 10 16.09344 0 0
3:35 pm 15:35 Partly Cloudy 95 35 73 23 50 50 SSW 12 19 29.83 1010 10 16.09344 0 0
3:55 pm 15:55 Partly Cloudy 91 33 73 23 56 56 WSW 10 17 29.83 1010 10 16.09344 0 0
4:35 pm 16:35 Partly Cloudy 84 29 77 25 79 79 Calm 29.83 1010 10 16.09344 0.25 6.35
4:55 pm 16:55 Sunny with Nearby Thunderstorms 86 30 77 25 75 75 NE 3 6 29.83 1010 10 16.09344 0.25 6.35
5:15 pm 17:15 Sunny 86 30 77 25 75 75 Calm 29.8 1009 10 16.09344 0 0
5:30 pm 17:30 Partly Cloudy 86 30 77 25 75 75 NE 8 13 29.8 1009 10 16.09344 0 0
5:55 pm 17:55 Partly Cloudy 82 28 77 25 84 84 ENE 3 6 29.83 1010 10 16.09344 0 0
6:15 pm 18:15 Cloudy 82 28 79 26 89 89 Calm 29.83 1010 5 8.04672 0.02 0.508
6:35 pm 18:35 Mostly Cloudy with Nearby Thunderstorms 81 27 79 26 94 94 Calm 29.83 1010 10 16.09344 0.02 0.508
6:55 pm 18:55 Cloudy with Thunderstorms 79 26 72 22 79 79 SW 10 17 29.83 1010 2 3.218688 0.15 3.81
7:15 pm 19:15 Mostly Cloudy 79 26 73 23 84 84 WSW 6 9 29.83 1010 10 16.09344 0 0
7:35 pm 19:35 Cloudy 79 26 73 23 84 84 NW 3 6 29.88 1012 10 16.09344 0 0
7:55 pm 19:55 Partly Cloudy 81 27 75 24 84 84 SSW 8 13 29.85 1011 10 16.09344 0 0
8:15 pm 20:15 Sunny 77 25 73 23 89 89 S 3 6 29.85 1011 10 16.09344 0 0
8:35 pm 20:35 Sunny 77 25 72 22 83 83 SE 8 13 29.88 1012 10 16.09344 0 0
8:55 pm 20:55 Clear 75 24 73 23 94 94 Calm 29.88 1012 10 16.09344 0 0
9:15 pm 21:15 Clear 77 25 73 23 89 89 S 3 6 29.88 1012 10 16.09344 0 0
9:35 pm 21:35 Clear 73 23 72 22 94 94 SSW 3 6 29.85 1011 10 16.09344 0 0
9:55 pm 21:55 Clear 73 23 72 22 94 94 Calm 29.88 1012 10 16.09344 0 0
10:15 pm 22:15 Clear 73 23 72 22 94 94 NW 3 6 29.88 1012 10 16.09344 0 0
10:55 pm 22:55 Clear 73 23 72 22 94 94 Calm 29.88 1012 10 16.09344 0 0
11:15 pm 23:15 Clear 72 22 72 22 100 100 WNW 3 6 29.91 1013 10 16.09344 0 0
11:35 pm 23:35 Clear 72 22 72 22 100 100 Calm 29.91 1013 10 16.09344 0 0
11:55 pm 23:55 Partly Cloudy 72 22 72 22 100 100 Calm 29.88 1012 10 16.09344 0 0

Powered by AerisWeather